map of PNR home
PNR - Airport
Location
City:  Pointe Noire, Kouilou, Congo (Republic of)
ICAO:FCPP
IATA:PNR

Details
Type:Airport (Aerodrome, Airfield)
Use:Public/Civil, International (customs port of entry)
Latitude:448'53"S (-4.814721)
Longitude:1153'11"E (11.886389)
Elevation:56 ft (17 m)
Variation:2.38W (WMM2015 magnetic declination)
0.16 annual change
Runways:1
Longest:8596 × 148 ft (2620 × 45 m), paved

Time
Time Zone:UTC+1
Local Time:

Weather
METAR:FCPP 240700Z 07003KT 030V100 8000 FEW010 27/25 Q1011 NOSIG
TAF:FCPP 240500Z 2406/2506 18005KT 8000 FEW010 PROB40 2409/2412 FEW013 BKN023 FEW030CB
BECMG 2423/2501 SCT010 BKN020 FEW030CB PROB40 2502/2505 TS

Related Locations
Nearby:
Farthest:PLPA: 12027 mi / 19356 km
Palmyra Island Atoll [Palmyra Airport (Cooper)], UM

Find:

   beyond  
but within

Other Information
Maps:
NOTAMs:
Links:
Sources:

  
  • flag of Congo (Republic of)
  

Sectional Chart

Flight Planning
at skyvector.com

Satellite Image

Google Maps Satellite view

 

Copyright © 2004-2019 Karl L. Swartz. All rights reserved.
The Great Circle Mapper name and logo are trademarks of the Great Circle Mapper.
All other trademarks mentioned herein belong to their respective owners.
Please see credits for attibutions and further copyright information.

  Follow gcmap on Facebook Follow gcmap on Twitter Follow gcmap on Google+ GCmap on LinkedIn

hCard Microformat

Geo Microformat